Theta_e
276 276 276 276 276 279 278 280 277 280 278 284 285 284 284 286 287 287 287 288 288 289 291 298 299 301 302 302 303 304 305 303 301 299 299 298 297 296 296 295 295 295 294 293
272 276 276 274 277 278 279 279 279 279 278 283 285 285 283 284 284 285 287 288 288 289 289 290 297 298 299 299 300 302 302 301 301 299 298 297 296 295 295 294 293 292 293 292
269 274 274 269 275 276 278 280 280 275 278 281 280 282 281 282 283 283 286 287 288 289 290 290 290 296 298 299 300 300 300 300 298 298 298 297 295 294 293 292 291 290 290 291
269 271 257 273 280 279 279 281 282 280 281 282 281 282 282 283 282 284 285 287 287 288 290 291 291 293 298 299 299 298 298 297 298 298 297 297 295 294 293 291 290 290 289 290
263 267 271 274 276 276 276 277 283 282 282 282 283 282 281 284 285 285 286 287 288 289 290 291 291 294 297 299 298 297 297 297 298 297 296 296 294 293 293 291 290 289 289 288
269 265 260 273 277 280 280 274 281 283 282 280 281 275 276 283 284 285 286 287 288 289 290 291 291 294 297 297 297 297 298 298 299 298 297 296 295 293 292 292 289 287 286 288
269 268 272 277 278 281 272 273 282 283 283 281 278 279 282 284 283 284 287 287 288 288 290 290 292 292 296 296 296 299 299 299 299 298 297 297 295 294 292 290 287 285 285 285
269 265 262 279 277 274 277 281 282 280 283 283 282 282 283 282 282 283 285 286 287 286 288 291 291 292 290 293 298 298 298 298 298 298 298 296 294 293 291 289 286 284 283 283
268 270 279 279 278 280 280 278 279 278 282 282 281 280 282 282 282 282 284 286 287 287 287 289 291 292 291 292 295 297 297 297 298 298 297 295 293 292 290 289 287 284 283 282
273 275 275 277 280 280 279 278 279 279 280 280 279 280 281 281 282 282 283 285 287 288 287 287 289 290 292 293 294 297 297 297 297 296 296 295 294 293 291 289 287 285 283 283
273 275 276 277 277 279 279 280 280 281 280 280 280 280 281 281 281 283 283 285 286 287 287 287 288 289 291 291 293 297 297 298 296 296 295 294 294 293 292 292 290 288 286 284
271 276 276 277 279 280 278 278 279 279 279 281 281 280 281 281 282 282 283 283 283 284 288 288 289 289 290 291 293 292 295 296 296 295 294 293 292 291 289 291 289 289 288 286
276 279 279 279 279 279 278 279 280 280 280 280 281 282 282 282 283 284 283 283 283 284 286 289 289 289 289 291 292 292 291 292 296 294 293 292 291 290 288 286 288 288 288 287
280 280 278 279 278 281 280 281 282 282 282 282 282 283 283 282 283 282 282 284 284 284 285 286 289 289 290 291 290 290 291 290 295 295 293 293 292 291 290 288 287 286 287 287
280 281 280 280 281 280 281 281 279 279 281 281 282 281 281 281 281 282 284 284 284 284 284 286 288 289 291 291 290 290 291 291 295 295 294 292 293 291 290 289 287 287 285 284
280 280 280 279 279 280 280 279 279 279 280 281 281 281 282 282 283 283 284 284 282 282 284 285 287 289 290 290 289 290 291 288 291 294 293 292 291 290 289 289 288 286 285 285
278 277 278 278 278 279 279 280 280 280 281 280 281 281 282 282 282 282 283 284 283 284 284 284 284 287 289 290 289 289 288 289 289 291 291 292 291 290 290 289 288 287 287 287
279 279 279 279 279 279 279 280 281 280 280 281 282 282 281 281 280 281 282 283 283 283 284 285 286 286 289 290 289 289 288 288 290 292 292 291 291 291 290 290 289 288 287 285
278 278 279 279 279 280 280 280 280 281 282 282 281 280 281 281 281 282 282 282 281 281 283 285 284 284 286 288 288 288 288 287 287 291 292 289 289 290 290 289 288 288 287 284
280 280 280 280 281 281 280 281 282 281 282 281 280 279 279 280 280 280 281 281 282 283 285 285 284 284 284 284 284 287 287 288 287 288 289 289 288 288 289 288 287 286 285 283
279 280 280 280 280 281 280 281 280 279 280 280 280 279 279 281 281 281 280 279 282 284 284 284 284 284 284 284 285 286 287 287 288 288 286 286 287 287 287 287 286 286 283 283
278 278 278 278 278 278 279 280 280 280 280 280 281 280 280 280 281 282 282 281 283 283 283 284 284 283 284 283 285 286 286 288 288 289 287 286 286 286 286 286 286 285 284 283
277 277 277 277 277 278 280 280 280 280 280 280 280 281 281 282 283 282 281 285 285 285 284 284 284 283 283 283 285 285 286 288 287 287 286 286 286 287 286 286 286 286 284 283
277 277 278 278 278 278 277 279 280 281 281 282 282 282 282 281 282 284 285 285 285 285 284 284 284 283 282 284 284 285 285 287 286 287 287 287 287 287 287 286 286 285 285 284
277 277 277 277 277 277 279 280 281 280 280 280 281 282 283 284 284 285 286 286 286 285 285 285 283 282 283 284 285 285 286 287 287 286 286 287 287 286 286 286 286 285 285 284
277 277 277 278 278 279 280 280 279 279 280 280 281 283 284 285 285 286 287 287 287 286 286 285 284 283 283 284 285 285 286 288 288 288 287 287 287 287 286 286 285 285 285 284
278 278 279 279 280 280 279 279 278 279 280 281 281 282 283 284 285 285 286 288 288 287 286 286 285 283 284 284 284 285 287 288 288 288 287 287 287 287 286 286 286 285 285 284
Wind_Speed
7 5 4 5 8 5 3 4 2 3 3 5 7 7 8 8 12 15 17 19 18 16 15 8 4 2 4 5 9 11 13 13 13 13 13 12 12 13 12 11 10 11 11 9
5 10 5 7 5 5 5 5 7 6 6 6 6 7 10 13 14 15 14 14 16 17 16 13 8 3 4 6 10 13 13 14 13 13 13 14 13 12 12 11 10 9 10 11
3 5 7 8 4 8 4 2 2 4 2 5 6 9 11 10 11 14 15 15 16 15 15 14 11 9 7 9 8 11 12 13 14 14 14 12 14 13 11 12 11 9 8 9
3 1 1 2 6 1 10 6 6 7 6 6 2 3 9 8 8 10 13 14 14 14 15 15 14 14 9 8 9 9 9 11 13 16 15 14 14 14 13 11 12 11 10 9
3 5 7 3 5 4 4 3 6 1 4 6 10 3 1 8 6 5 8 9 10 11 13 17 19 20 13 10 10 10 11 10 12 13 14 15 15 15 12 12 10 10 10 9
3 4 6 1 5 3 3 5 4 4 5 4 7 4 3 6 6 5 5 6 9 11 12 18 23 21 8 10 10 12 13 13 14 12 14 17 15 17 14 11 12 9 9 10
6 4 5 1 6 4 7 3 3 2 7 4 1 3 4 5 5 5 4 6 8 9 10 12 17 21 6 3 8 8 8 11 13 13 13 12 13 13 13 13 10 9 9 7
5 5 9 4 0 1 2 3 4 3 4 4 4 4 6 6 5 6 6 6 6 7 10 10 11 14 15 10 5 5 7 11 12 14 12 12 15 12 14 14 14 11 10 7
8 6 2 3 4 6 5 5 5 4 7 7 6 6 6 7 7 5 7 5 5 5 8 9 9 9 11 12 14 6 9 12 13 13 13 13 15 14 12 12 12 10 10 9
9 11 12 12 12 6 7 7 7 7 8 4 7 8 7 7 8 8 7 6 4 5 8 8 7 8 7 11 14 9 11 11 10 12 12 12 11 11 12 12 11 11 10 10
21 17 9 11 10 13 10 7 7 8 9 10 9 12 10 9 8 10 9 6 5 6 7 7 6 9 7 9 14 7 10 10 11 10 14 13 13 13 13 14 16 15 13 12
18 7 12 17 16 15 14 9 11 12 14 12 11 12 9 8 10 10 10 7 6 6 9 9 6 7 8 7 9 10 6 8 9 9 11 11 11 8 4 11 16 16 17 15
21 19 20 19 11 9 10 12 15 14 14 16 14 11 10 12 13 12 13 7 9 10 12 10 8 7 4 5 7 8 7 10 8 11 10 11 11 11 11 4 13 15 20 19
15 18 23 20 17 17 16 16 18 15 14 14 14 13 13 11 13 13 13 14 12 11 12 10 10 10 6 5 6 8 8 14 10 11 11 12 12 12 11 12 13 10 16 18
17 15 19 17 19 17 17 14 14 14 14 15 12 11 11 13 14 16 15 13 12 11 11 9 10 11 8 7 7 7 5 9 9 10 10 11 11 11 11 10 10 10 7 7
19 19 19 21 21 19 17 15 16 16 15 15 13 13 14 14 15 15 14 11 9 10 11 9 9 11 9 9 8 5 5 6 9 6 7 10 9 11 11 11 11 10 11 11
16 17 16 16 17 18 17 16 16 15 13 12 14 13 13 14 14 14 14 13 13 14 11 11 10 11 7 10 8 6 5 3 8 9 11 11 11 12 12 13 12 12 12 12
12 14 13 14 14 14 13 14 14 12 12 14 15 13 12 12 14 15 14 13 13 14 14 11 11 10 9 9 10 8 6 5 5 10 11 11 12 12 12 13 13 12 10 12
9 11 13 14 14 14 13 13 14 13 12 13 12 12 14 15 15 15 15 15 16 17 16 13 13 11 10 10 10 8 8 7 4 9 11 13 12 11 11 12 12 12 12 11
6 7 9 12 12 11 11 10 11 12 13 12 14 14 15 16 15 16 16 20 20 17 17 14 12 12 11 10 10 10 9 9 8 10 11 11 12 13 12 14 12 12 12 12
8 7 8 11 12 11 11 13 13 14 16 16 17 17 18 18 16 16 17 15 25 16 16 17 14 11 10 10 10 11 11 11 9 11 11 12 12 12 12 12 12 12 11 11
10 11 12 13 13 15 15 15 15 16 17 18 19 18 18 19 19 19 21 21 14 14 11 12 12 17 14 13 10 11 12 11 7 8 10 11 11 11 12 12 12 12 11 11
12 13 13 14 15 17 17 17 17 19 20 19 19 19 19 16 14 16 16 14 15 18 15 14 15 18 18 12 11 12 12 12 9 9 10 11 12 12 11 12 12 11 12 12
14 15 16 16 16 16 19 20 19 19 20 20 21 20 19 15 15 13 16 19 24 20 14 14 16 20 18 11 12 13 12 11 9 9 10 14 11 11 10 11 11 11 11 12
17 17 16 16 17 16 19 18 17 18 18 19 20 19 21 16 16 13 13 14 21 20 16 17 20 20 13 12 11 12 12 10 10 9 11 11 12 12 12 11 12 12 11 12
16 13 13 16 15 14 13 13 14 14 13 15 14 13 13 13 14 14 13 18 17 17 14 12 13 15 13 13 12 13 11 10 11 12 12 12 12 12 12 11 11 11 11 11
14 15 13 13 12 13 13 13 14 16 15 14 15 13 14 14 14 15 17 14 12 14 12 13 13 15 13 12 11 11 10 10 11 11 11 11 11 11 11 11 10 10 10 10
Wind_Direction
307 279 289 269 287 291 265 269 237 125 47 80 40 41 15 1 8 21 16 9 9 7 3 360 22 126 147 151 165 167 174 174 175 162 156 151 154 152 149 153 158 153 147 145
299 321 0 292 249 272 251 263 274 265 276 29 35 48 34 23 14 12 14 11 0 359 357 350 333 263 172 173 175 172 178 176 171 162 158 158 152 150 147 147 144 144 157 157
251 7 329 311 294 211 183 103 339 233 67 18 28 43 31 17 19 12 1 360 359 353 342 337 323 302 217 192 180 180 178 167 164 158 160 163 146 146 156 153 147 149 150 159
263 23 295 278 12 302 103 87 69 68 22 354 337 169 73 34 17 9 1 353 351 348 340 332 317 299 232 188 181 175 178 168 165 163 160 155 155 153 156 161 156 162 158 162
172 212 296 111 10 15 17 116 22 78 7 325 326 184 16 20 3 5 350 343 340 339 343 337 333 317 219 188 178 171 166 181 176 166 157 158 161 157 159 159 161 163 161 155
196 204 229 98 306 267 169 187 353 13 344 333 343 78 273 328 335 325 332 333 337 335 347 354 347 337 205 189 183 188 190 177 169 173 169 168 170 164 162 172 165 155 160 171
228 258 265 213 286 304 192 132 253 215 285 323 49 231 243 307 312 307 297 325 328 338 353 360 353 357 344 216 214 208 180 173 168 172 172 183 170 167 163 152 152 156 167 167
210 215 251 207 14 39 170 203 228 302 266 263 248 282 287 291 290 308 299 311 325 336 349 355 8 1 356 355 275 188 169 176 173 172 170 175 173 171 162 156 151 164 161 162
184 208 145 182 211 210 181 219 265 274 262 236 248 262 273 281 299 297 289 281 298 318 333 349 354 10 347 338 340 205 185 187 181 177 182 174 174 170 162 168 159 170 174 174
247 236 250 260 265 231 211 232 248 265 267 250 263 255 253 262 278 295 290 261 265 296 316 327 339 336 338 328 327 266 197 188 179 174 183 180 179 177 170 173 169 173 177 181
256 252 265 252 231 230 243 229 246 246 247 252 248 247 250 263 262 277 274 253 249 257 277 285 315 310 326 335 329 263 201 191 187 191 191 184 190 183 185 189 181 176 185 178
251 219 220 243 247 237 237 220 233 246 259 259 262 256 234 258 270 265 266 246 264 272 258 261 263 291 315 338 346 341 296 210 193 194 195 187 182 184 218 183 177 176 169 175
246 247 251 249 238 222 223 243 261 259 257 266 265 247 259 269 267 263 262 249 262 265 266 253 240 256 281 315 316 326 315 301 226 196 194 187 183 179 179 159 167 166 163 165
238 243 252 249 246 238 237 252 258 260 256 254 255 252 255 248 264 256 252 264 255 256 257 256 242 247 236 235 301 303 275 300 217 211 200 193 186 183 178 177 174 182 173 168
234 243 245 249 251 246 249 251 253 257 259 259 248 241 248 251 250 255 258 250 253 248 245 246 238 245 230 220 245 264 275 310 234 194 201 192 183 176 176 178 176 170 151 169
243 239 237 239 247 247 245 252 254 257 253 250 253 255 248 245 248 255 257 252 239 239 240 226 227 246 227 215 243 259 266 306 261 202 212 189 183 179 176 178 172 170 176 175
236 244 239 240 242 249 250 252 249 246 244 245 248 248 250 253 246 251 253 253 243 240 232 228 236 262 246 216 225 244 239 253 270 200 207 197 186 187 184 179 183 176 181 174
230 237 244 242 249 250 243 238 242 239 240 250 251 247 249 248 246 249 250 247 247 252 249 239 230 245 224 212 218 231 214 222 267 220 204 195 200 190 186 187 186 174 178 175
242 243 247 246 239 239 241 242 242 244 243 243 244 242 241 248 251 252 253 249 249 253 253 240 231 223 231 223 225 231 226 208 229 229 215 197 191 192 189 187 184 175 174 171
242 221 234 242 240 230 241 248 250 253 250 245 244 245 246 248 247 248 249 249 247 248 251 242 227 231 239 234 213 230 229 214 216 223 207 202 192 189 189 185 176 175 172 177
271 256 260 268 260 252 248 252 252 255 256 250 248 248 249 252 248 244 248 251 252 253 249 243 235 237 238 239 217 220 227 226 231 210 195 192 188 185 187 182 179 177 176 180
269 269 270 269 266 265 264 260 257 257 258 256 252 252 254 253 251 250 248 251 266 244 236 235 231 230 230 220 213 216 222 222 227 200 188 187 184 185 182 180 180 178 178 179
267 260 263 265 263 262 265 262 260 259 257 255 255 255 255 257 259 256 260 243 245 243 236 237 231 226 223 216 212 214 220 216 202 194 190 183 184 184 181 183 184 182 178 180
266 266 263 264 266 266 265 261 260 258 258 260 259 258 259 259 255 245 253 252 248 245 235 227 223 223 215 214 210 212 211 210 201 199 193 190 185 181 181 182 179 180 182 181
267 266 267 267 263 261 264 266 265 265 267 265 261 260 256 252 252 255 251 246 240 236 235 226 213 212 212 210 208 211 212 204 194 195 194 189 184 180 179 180 181 178 180 183
267 264 260 258 261 266 269 271 270 270 267 265 262 258 255 252 255 251 249 248 237 228 223 214 205 205 205 208 206 207 210 202 190 193 188 185 181 178 177 178 175 178 184 181
270 267 270 269 264 267 266 267 269 267 263 262 265 262 259 261 254 254 249 243 231 217 210 202 198 196 196 200 203 206 201 200 191 186 181 177 176 173 171 176 176 177 175 178